[[{"header":{"parameterUnit":"m.s-1","parameterCategory":1,"la1":30.2991,"la2":30.254,"lo1":-89.0895,"lo2":-89.0444,"dy":0.0017,"dx":0.0017,"nx":28,"ny":28,"refTime":"2024-07-05T09:00:00:Z","depth":0,"parameterNumber":2,"parameterNumberName":"U-component_of_WINDS"},"data":[0,0,0,0,0,0,0,0,0,0,0,0,0,0,0,0,0,0,0,0,0,0,0,0,0,0,0,0,0,0,0,0,0,0,0,0,0,0,0,0,0,0,0,0,0,0,0,0,0,0,0,0,0,0,0,0,0,0,2.5526,2.5527,0,2.56,2.5601,2.5602,2.5552,2.555,2.5548,2.5545,2.5627,2.5631,2.5635,0,0,0,0,0,0,0,0,0,0,0,0,0,2.5342,2.5346,2.5526,2.5527,2.5528,2.56,2.5601,2.5602,2.5553,2.555,2.5547,2.5544,2.5625,2.563,2.5635,0,0,0,0,0,0,0,0,0,0,0,0,0,2.542,2.5347,2.5526,2.5511,2.5511,2.56,2.5601,2.5602,2.5553,2.555,2.5546,2.5543,2.5623,2.563,2.5636,2.5744,0,0,2.5656,2.5658,0,0,0,0,0,0,0,0,2.5416,2.5427,2.5513,2.5513,2.5512,2.5563,2.5566,2.565,2.5554,2.5537,2.5545,2.5541,2.5609,2.5616,2.5638,2.5748,2.5752,2.5656,2.566,2.5663,2.5665,0,0,0,0,0,0,0,2.541,2.5423,2.5555,2.5514,2.5514,2.5502,2.5509,2.5582,2.5592,2.5539,2.5535,2.5544,2.5608,2.5632,2.5639,2.5753,2.5656,2.5662,2.5666,2.5668,2.5952,2.5956,0,0,0,0,0,0,2.5406,2.5419,2.5553,2.5558,2.5454,2.5508,2.5516,2.555,2.559,2.5593,2.5547,2.5542,2.5622,2.5632,2.5642,2.5769,2.5663,2.5669,2.5673,2.5949,2.5953,2.5957,0,0,0,0,0,0,2.5402,2.5418,2.555,2.5487,2.5503,2.5515,2.5554,2.5554,2.5577,2.5597,2.5599,2.557,2.562,2.5633,2.5718,2.5771,2.5672,2.5678,2.5944,2.595,2.5955,2.6026,0,0,0,0,0,0,2.5397,2.5417,2.5458,2.5489,2.5507,2.5625,2.5557,2.5558,2.5588,2.5582,2.5618,2.5621,2.5618,2.5709,2.5725,2.5778,2.5683,2.594,2.5947,2.5954,2.6019,2.6033,2.6045,0,0,0,0,0,2.5391,2.5477,2.5461,2.5477,2.5558,2.5628,2.5638,2.5632,2.5593,2.5634,2.5646,2.562,2.5763,2.5718,2.5735,2.5792,2.5936,2.5945,2.5953,2.6013,2.603,2.6045,0,0,0,0,0,0,2.5455,2.5481,2.5463,2.5562,2.5593,2.5619,2.5672,2.5651,2.5695,2.5688,2.5679,2.5687,2.5776,2.5793,2.5742,2.5897,2.5843,2.5856,2.5883,2.59,2.5913,2.5907,2.5688,0,0,0,0,0,2.548,2.5534,2.5554,2.5639,2.5655,2.5661,2.5691,2.5683,2.5715,2.5729,2.5747,2.578,2.5832,2.5867,2.5916,2.6021,2.6027,2.6068,2.6081,2.6092,2.6102,2.6156,2.6174,2.5985,2.5984,2.5984,0,0,2.5535,2.5555,2.559,2.5652,2.5675,2.5731,2.5672,2.5735,2.5775,2.5739,2.5819,2.5834,2.587,2.5965,2.6007,2.5981,2.6156,2.6102,2.6111,2.6116,2.6167,2.6184,2.62,2.599,2.5989,2.5988,0,0,2.566,2.5682,2.5753,2.5777,2.5811,2.5813,2.5831,2.586,2.5867,2.5947,2.592,2.5969,2.6059,2.6085,2.6111,2.6242,2.6219,2.6259,2.6328,2.638,2.6395,2.6408,2.6454,2.647,2.6269,2.6269,2.6269,0,2.5723,2.5805,2.5794,2.5856,2.5884,2.585,2.5922,2.5946,2.5996,2.6016,2.5985,2.6095,2.6118,2.6216,2.6248,2.627,2.6289,2.6255,2.6394,2.6407,2.6419,2.6462,2.6479,2.6274,2.6273,2.6273,2.6272,0,2.5879,2.5936,2.599,2.6035,2.6069,2.6137,2.6135,2.6171,2.6159,2.6165,2.6246,2.6271,2.6323,2.6346,2.6336,2.6443,2.6425,2.6394,2.634,2.6442,2.6482,2.6498,2.628,2.6278,2.6277,2.6276,0,0,2.6051,2.6086,2.6106,2.6124,2.6158,2.6202,2.6267,2.6316,2.6346,2.638,2.6434,2.6509,2.648,2.6509,2.6501,2.6548,2.6647,2.6511,2.6512,2.6534,2.6764,2.6786,2.6805,2.6632,2.6635,2.6638,2.676,0,2.6177,2.6289,2.6278,2.6385,2.6436,2.6402,2.6459,2.6485,2.6492,2.6536,2.6544,2.6596,2.6555,2.6571,2.6615,2.6626,2.6693,2.6617,2.6682,2.6684,2.6673,2.6826,2.6851,2.6965,2.6776,2.6779,2.6781,0,2.634,2.6377,2.6487,2.651,2.6531,2.6582,2.6623,2.6667,2.6696,2.6697,2.6727,2.671,2.6775,2.6719,2.6808,2.6757,2.6782,2.6791,2.6795,2.6801,2.6738,2.6835,2.7002,2.7019,2.6806,2.6804,2.6802,0,2.6452,2.6529,2.6604,2.6622,2.665,2.6686,2.67,2.6725,2.6754,2.6791,2.6809,2.6855,2.6879,2.6915,2.6911,2.6871,2.7001,2.6945,2.7003,2.7003,2.7032,2.7031,2.7204,2.705,2.705,2.705,2.7049,0,2.6594,2.6662,2.6654,2.67,2.6775,2.6763,2.6837,2.6847,2.6869,2.6917,2.6892,2.6937,2.6929,2.6974,2.6972,2.7045,2.7057,2.7059,2.7058,2.7061,2.7061,2.7078,2.707,2.7054,2.7053,2.7052,2.7052,0,2.6732,2.6729,2.6808,2.6827,2.6833,2.6888,2.6904,2.6948,2.695,2.701,2.7024,2.7029,2.708,2.7079,2.714,2.7137,2.7226,2.7216,2.7216,2.7213,2.7271,2.7265,2.7462,2.7486,2.7317,2.7319,2.732,0,2.6822,2.6873,2.6897,2.6925,2.694,2.6988,2.7016,2.7005,2.7035,2.7069,2.7109,2.7157,2.7195,2.7279,2.7289,2.7333,2.7324,2.7389,2.733,2.7331,2.7323,2.732,2.7324,2.7401,2.7403,2.7404,2.7406,0,2.6983,2.6978,2.7018,2.7057,2.7091,2.7122,2.715,2.7176,2.7167,2.7202,2.7253,2.7282,2.7341,2.7389,2.7431,2.7446,2.7425,2.7424,2.7439,2.7443,2.744,2.7441,2.7246,2.742,2.7418,2.7417,2.7416,2.7416,2.7099,2.7141,2.7163,2.7208,2.7227,2.7254,2.7294,2.73,2.7342,2.7387,2.7378,2.7435,2.746,2.7514,2.7532,2.7576,2.7553,2.7577,2.7582,2.7588,2.7593,2.7433,2.7584,2.7584,2.7583,2.7583,2.7583,0,2.7257,2.7268,2.7309,2.7348,2.7383,2.7356,2.7385,2.7417,2.7466,2.749,2.7527,2.7584,2.763,2.7641,2.7685,2.7718,2.7709,2.773,2.7728,2.7731,2.7612,2.7594,2.7736,2.7736,2.7736,2.7736,2.7736,2.7736,2.7343,2.7412,2.741,2.7488,2.7499,2.7552,2.7571,2.7595,2.7613,2.7677,2.7714,2.772,2.7739,2.7783,2.7824,2.7826,2.7843,2.7868,2.7866,2.7755,2.774,2.7725,2.7707,2.7872,2.7872,2.7981,2.7982,2.7982]},{"header":{"parameterUnit":"m.s-1","parameterCategory":1,"la1":30.2991,"la2":30.254,"lo1":-89.0895,"lo2":-89.0444,"dy":0.0017,"dx":0.0017,"nx":28,"ny":28,"refTime":"2024-07-05T09:00:00:Z","depth":0,"parameterNumber":3,"parameterNumberName":"V-component_of_WINDS"},"data":[0,0,0,0,0,0,0,0,0,0,0,0,0,0,0,0,0,0,0,0,0,0,0,0,0,0,0,0,0,0,0,0,0,0,0,0,0,0,0,0,0,0,0,0,0,0,0,0,0,0,0,0,0,0,0,0,0,0,4.6871,4.6873,0,4.7004,4.7006,4.7007,4.6995,4.6993,4.6991,4.6989,4.7118,4.7123,4.7128,0,0,0,0,0,0,0,0,0,0,0,0,0,4.66,4.6605,4.6871,4.6873,4.6875,4.7004,4.7006,4.7008,4.6995,4.6993,4.699,4.6988,4.7116,4.7122,4.7129,0,0,0,0,0,0,0,0,0,0,0,0,0,4.6724,4.6607,4.6871,4.6884,4.6887,4.7004,4.7006,4.7008,4.6996,4.6993,4.699,4.6987,4.7114,4.7122,4.713,4.724,0,0,4.7154,4.7158,0,0,0,0,0,0,0,0,4.6717,4.6734,4.6881,4.6884,4.6887,4.698,4.6958,4.7086,4.6997,4.6954,4.6989,4.6985,4.7074,4.7085,4.7117,4.7246,4.7251,4.7155,4.716,4.7163,4.7165,0,0,0,0,0,0,0,4.6708,4.6728,4.6924,4.6883,4.6886,4.6881,4.6896,4.6982,4.7029,4.6958,4.6957,4.6973,4.7075,4.7109,4.7119,4.7253,4.7155,4.7162,4.7167,4.717,4.7479,4.7482,0,0,0,0,0,0,4.6698,4.6721,4.6919,4.6928,4.6793,4.6889,4.6905,4.6953,4.7028,4.7037,4.6976,4.6972,4.7097,4.711,4.7124,4.7257,4.7163,4.7171,4.7175,4.7476,4.748,4.7483,0,0,0,0,0,0,4.6692,4.6715,4.6914,4.6824,4.6849,4.6897,4.6951,4.6957,4.6991,4.7042,4.705,4.7002,4.7095,4.7113,4.7212,4.7262,4.7174,4.7181,4.7472,4.7477,4.7482,4.7525,0,0,0,0,0,0,4.6684,4.6713,4.6757,4.6825,4.6854,4.7002,4.6954,4.6962,4.7006,4.7002,4.7069,4.7077,4.7094,4.72,4.7219,4.7271,4.7188,4.7467,4.7474,4.748,4.752,4.7531,4.7542,0,0,0,0,0,4.6674,4.6763,4.676,4.6784,4.691,4.7005,4.7021,4.704,4.701,4.7053,4.7086,4.7075,4.7253,4.721,4.7232,4.7287,4.7464,4.7472,4.7479,4.7515,4.7529,4.7541,0,0,0,0,0,0,4.6696,4.6772,4.6769,4.6883,4.6938,4.7002,4.7058,4.7055,4.7118,4.7112,4.7131,4.7146,4.7246,4.7276,4.7227,4.7397,4.7354,4.7367,4.7374,4.7388,4.7398,4.7388,4.7194,0,0,0,0,0,4.6715,4.6788,4.6849,4.6943,4.6971,4.701,4.7051,4.7062,4.7119,4.7141,4.7181,4.7235,4.7303,4.7347,4.7412,4.7524,4.7538,4.7573,4.7584,4.7592,4.7603,4.7663,4.7679,4.7509,4.7509,4.7508,0,0,4.6753,4.6803,4.6847,4.6949,4.6992,4.7065,4.7029,4.7107,4.7161,4.7152,4.7249,4.728,4.7341,4.7447,4.7495,4.7475,4.7653,4.7602,4.7609,4.7614,4.7673,4.7689,4.7703,4.7514,4.7513,4.7512,0,0,4.686,4.6906,4.6989,4.7034,4.7102,4.7128,4.7148,4.7214,4.7235,4.7332,4.7327,4.739,4.7507,4.7551,4.7588,4.7712,4.7704,4.7733,4.7789,4.7848,4.7861,4.7873,4.7917,4.7932,4.7743,4.7743,4.7743,0,4.6898,4.7009,4.7032,4.7112,4.7155,4.7154,4.7237,4.7279,4.7364,4.7393,4.737,4.7518,4.7558,4.7674,4.7705,4.7735,4.7757,4.7725,4.7858,4.787,4.7882,4.7923,4.794,4.7746,4.7746,4.7745,4.7745,0,4.7052,4.7129,4.7188,4.7273,4.7324,4.7404,4.7437,4.7486,4.7492,4.7519,4.7618,4.7667,4.7743,4.7771,4.7777,4.7888,4.7873,4.7854,4.7811,4.7901,4.794,4.7956,4.7751,4.7749,4.7749,4.7748,0,0,4.7174,4.7272,4.7293,4.7332,4.7407,4.7466,4.7546,4.7622,4.7663,4.7721,4.7788,4.7888,4.7871,4.7914,4.7924,4.7977,4.8071,4.7951,4.7953,4.7971,4.8194,4.8207,4.8225,4.8066,4.8069,4.8072,4.8189,0,4.7287,4.7433,4.7456,4.7582,4.7653,4.7653,4.7723,4.7775,4.7803,4.7866,4.7895,4.7966,4.7939,4.7964,4.8016,4.8048,4.8115,4.804,4.8126,4.8129,4.811,4.8246,4.826,4.8368,4.8204,4.8207,4.8209,0,4.7438,4.7504,4.7638,4.7704,4.7735,4.7798,4.7869,4.793,4.7989,4.8005,4.8054,4.8059,4.814,4.8095,4.8206,4.8155,4.8191,4.8213,4.8217,4.8225,4.8173,4.8256,4.8403,4.8419,4.8233,4.8231,4.823,0,4.7513,4.7634,4.7731,4.7764,4.7843,4.7887,4.7922,4.7978,4.8023,4.8085,4.8114,4.8183,4.8221,4.8274,4.8297,4.8263,4.8407,4.8364,4.8421,4.842,4.845,4.8448,4.8604,4.8476,4.8475,4.8475,4.8475,0,4.7636,4.7718,4.7765,4.7824,4.7915,4.7941,4.8029,4.8062,4.8113,4.8177,4.8181,4.824,4.8267,4.833,4.8349,4.8438,4.8455,4.8469,4.8472,4.8468,4.8466,4.8491,4.8483,4.848,4.8479,4.8478,4.8477,0,4.7734,4.7769,4.7874,4.7942,4.7961,4.8025,4.8082,4.8138,4.8166,4.8247,4.8267,4.831,4.8385,4.8414,4.8504,4.8516,4.8618,4.8616,4.8599,4.86,4.8655,4.8649,4.8831,4.8856,4.8713,4.8714,4.8715,0,4.7809,4.7873,4.7948,4.7993,4.803,4.8101,4.8147,4.8174,4.8221,4.8294,4.8341,4.8416,4.8477,4.8596,4.8634,4.8703,4.8702,4.8761,4.8712,4.8705,4.8701,4.8697,4.8703,4.8769,4.8771,4.8772,4.8773,0,4.7939,4.7954,4.8022,4.8096,4.8152,4.8211,4.8268,4.8303,4.8339,4.8392,4.847,4.8517,4.8611,4.8685,4.8756,4.8789,4.8786,4.8789,4.8805,4.8801,4.8788,4.8794,4.8622,4.8784,4.8783,4.8782,4.8781,4.8781,4.8027,4.8083,4.8146,4.8221,4.8268,4.8322,4.8378,4.8414,4.8481,4.856,4.8572,4.8655,4.8712,4.8808,4.8844,4.8908,4.8892,4.8916,4.8922,4.8927,4.8931,4.8779,4.8921,4.8921,4.892,4.892,4.892,0,4.8156,4.8197,4.8266,4.8348,4.8406,4.8403,4.8466,4.8515,4.8588,4.8643,4.8705,4.8793,4.8865,4.891,4.8982,4.9024,4.9025,4.9042,4.9038,4.9046,4.8942,4.892,4.904,4.904,4.904,4.904,4.904,4.904,4.823,4.8325,4.8347,4.8465,4.8505,4.8588,4.8624,4.8674,4.8718,4.8818,4.8879,4.8908,4.8959,4.9034,4.91,4.9111,4.9136,4.9155,4.9164,4.9065,4.9053,4.9041,4.902,4.916,4.916,4.9263,4.9264,4.9264]}]]